Weather History for New Bern, NC

Change the Weather History Date:

Thursday, January 31, 2013

  Actual Average Record
Temperature  
Mean Temperature 55 °F 45 °F  
Max Temperature 71 °F 56 °F 81 °F (1950)
Min Temperature 38 °F 35 °F 15 °F (1965)
Degree Days  
Heating Degree Days 10 20  
Month to date heating degree days 502 644  
Since 1 July heating degree days 1444 1640  
Cooling Degree Days 0 0  
Month to date cooling degree days 7 1  
Year to date cooling degree days 7 1  
Growing Degree Days 12 (Base 50)    
Moisture  
Dew Point 48 °F    
Average Humidity 55    
Maximum Humidity 84    
Minimum Humidity 26    
Precipitation  
Precipitation 0.35 in 0.14 in 2.29 in (1960)
Month to date precipitation 1.83 4.02  
Year to date precipitation 1.83 4.02  
Snow  
Snow 0.00 in - - ()
Month to date snowfall 0.0  
Since 1 July snowfall 0.0  
Snow Depth 0.00 in    
Sea Level Pressure  
Sea Level Pressure 29.67 in    
Wind  
Wind Speed 14 mph (WSW)    
Max Wind Speed 35 mph    
Max Gust Speed 54 mph    
Visibility 8 miles    
Events Rain    
T = Trace of Precipitation, MM = Missing Value Source: NWS Daily Summary

Daily Weather History Graph

Daily Weather History Graph

Search for Another Location

Airport:

Trip Planner

Search our weather history database for the weather conditions in past years. The results will help you decide how hot, cold, wet, or windy it might be!

Date:

Astronomy

Jan. 31, 2013 Rise Set
Actual Time 7:07 AM EST 5:36 PM EST
Civil Twilight 6:41 AM EST 6:02 PM EST
Nautical Twilight 6:10 AM EST 6:33 PM EST
Astronomical Twilight 5:40 AM EST 7:02 PM EST
Moon 10:21 PM EST (1/31) 9:18 AM EST (1/31)
Length of Visible Light 11h 21m
Length of Day
10h 28m
Waning Gibbous, 80% of the Moon is Illuminated
Jan 31
Waning Gibbous
Feb 3
Last Quarter
Feb 10
New
Feb 17
First Quarter
Feb 25
Full

Hourly Weather History & Observations

Time (EST) Temp. Dew Point Humidity Pressure Visibility Wind Dir Wind Speed Gust Speed Precip Events Conditions
12:10 AM 71.6 °F 62.6 °F 73% 29.60 in 10.0 mi South 27.6 mph 42.6 mph N/A   Overcast
12:54 AM 71.1 °F 63.0 °F 75% 29.56 in 10.0 mi South 25.3 mph 42.6 mph 0.00 in Rain Light Rain
1:54 AM 71.1 °F 64.0 °F 78% 29.52 in 10.0 mi South 24.2 mph 48.3 mph 0.00 in   Overcast
2:31 AM 68.0 °F 64.4 °F 88% 29.58 in 1.2 mi West 34.5 mph 54.1 mph 0.21 in Rain Heavy Rain
2:35 AM 62.6 °F 60.8 °F 94% 29.57 in 0.8 mi WSW 15.0 mph 54.1 mph 0.27 in Rain Heavy Rain
2:39 AM 60.8 °F 57.2 °F 88% 29.57 in 1.0 mi WSW 15.0 mph 54.1 mph 0.28 in Rain Heavy Rain
2:42 AM 60.8 °F 57.2 °F 88% 29.58 in 2.5 mi WSW 11.5 mph 27.6 mph 0.29 in Rain Rain
2:49 AM 60.8 °F 57.2 °F 88% 29.58 in 6.0 mi WSW 13.8 mph 23.0 mph 0.30 in Rain Light Rain
2:54 AM 60.1 °F 57.0 °F 90% 29.57 in 10.0 mi WSW 18.4 mph 28.8 mph 0.30 in Rain Light Rain
3:05 AM 60.8 °F 55.4 °F 82% 29.59 in 10.0 mi WSW 19.6 mph 32.2 mph 0.00 in Rain Light Rain
3:24 AM 60.8 °F 55.4 °F 82% 29.58 in 7.0 mi WSW 15.0 mph 28.8 mph 0.03 in Rain Rain
3:35 AM 60.8 °F 55.4 °F 82% 29.58 in 10.0 mi WSW 13.8 mph 25.3 mph 0.04 in Rain Light Rain
3:54 AM 60.1 °F 55.9 °F 86% 29.58 in 10.0 mi WSW 16.1 mph 33.4 mph 0.04 in Rain Light Rain
4:28 AM 59.0 °F 55.4 °F 88% 29.58 in 10.0 mi West 11.5 mph - 0.01 in Rain Light Rain
4:54 AM 57.0 °F 53.1 °F 87% 29.60 in 10.0 mi West 16.1 mph 25.3 mph 0.01 in   Overcast
5:42 AM 55.4 °F 50.0 °F 82% 29.64 in 10.0 mi West 19.6 mph 27.6 mph N/A   Overcast
5:54 AM 55.9 °F 46.9 °F 72% 29.65 in 10.0 mi WSW 15.0 mph 39.1 mph N/A   Mostly Cloudy
7:54 AM 53.1 °F 43.0 °F 69% 29.74 in 10.0 mi WSW 17.3 mph 26.5 mph N/A   Partly Cloudy
8:54 AM 52.0 °F 39.0 °F 61% 29.78 in 10.0 mi WSW 15.0 mph 28.8 mph N/A   Mostly Cloudy
9:54 AM 53.1 °F 37.9 °F 57% 29.81 in 10.0 mi West 15.0 mph 26.5 mph N/A   Partly Cloudy
10:54 AM 54.0 °F 36.0 °F 51% 29.84 in 10.0 mi West 24.2 mph 31.1 mph N/A   Scattered Clouds
12:54 PM 55.0 °F 27.0 °F 34% 29.83 in 10.0 mi West 17.3 mph 32.2 mph N/A   Clear
1:54 PM 55.9 °F 23.0 °F 28% 29.84 in 10.0 mi West 18.4 mph 27.6 mph N/A   Clear
3:54 PM 55.0 °F 21.0 °F 27% 29.87 in 10.0 mi West 17.3 mph 28.8 mph N/A   Clear
4:54 PM 54.0 °F 24.1 °F 31% 29.90 in 10.0 mi West 12.7 mph 23.0 mph N/A   Clear
5:54 PM 51.1 °F 24.1 °F 35% 29.95 in 10.0 mi West 9.2 mph - N/A   Clear